[[{"header":{"parameterUnit":"m.s-1","parameterCategory":1,"la1":30.2991,"la2":30.254,"lo1":-89.0895,"lo2":-89.0444,"dy":0.0017,"dx":0.0017,"nx":28,"ny":28,"refTime":"2025-09-15T03:00:00:Z","depth":0,"parameterNumber":2,"parameterNumberName":"U-component_of_WINDS"},"data":[0,0,0,0,0,0,0,0,0,0,0,0,0,0,0,0,0,0,0,0,0,0,0,0,0,0,0,0,0,0,0,0,0,0,0,0,0,0,0,0,0,0,0,0,0,0,0,0,0,0,0,0,0,0,0,0,0,0,1.4412,1.4411,0,1.4367,1.4367,1.4366,1.428,1.4279,1.4277,1.4275,1.423,1.423,1.423,0,0,0,0,0,0,0,0,0,0,0,0,0,1.4424,1.4424,1.4412,1.4411,1.4411,1.4367,1.4367,1.4366,1.4281,1.4278,1.4276,1.4275,1.423,1.423,1.423,0,0,0,0,0,0,0,0,0,0,0,0,0,1.4403,1.4425,1.4412,1.4363,1.4358,1.4367,1.4367,1.4366,1.4281,1.4278,1.4276,1.4274,1.4229,1.423,1.4231,1.4284,0,0,1.4232,1.4232,0,0,0,0,0,0,0,0,1.4405,1.4403,1.437,1.4366,1.4361,1.4327,1.4354,1.4338,1.4282,1.431,1.4275,1.4272,1.4264,1.4262,1.4259,1.4282,1.428,1.4232,1.4232,1.4233,1.4233,0,0,0,0,0,0,0,1.4406,1.4404,1.4394,1.437,1.4364,1.4343,1.4338,1.4351,1.4302,1.4307,1.4301,1.4297,1.4261,1.4258,1.4257,1.4279,1.4232,1.4233,1.4233,1.4233,1.4346,1.4349,0,0,0,0,0,0,1.4415,1.4406,1.4395,1.4393,1.4377,1.4345,1.4339,1.434,1.4301,1.4293,1.4299,1.4293,1.4259,1.4256,1.4255,1.4316,1.4233,1.4233,1.4233,1.4343,1.4347,1.435,0,0,0,0,0,0,1.4415,1.4414,1.4397,1.4398,1.4394,1.4348,1.435,1.4341,1.4338,1.4295,1.4286,1.4306,1.4257,1.4254,1.4278,1.4313,1.4233,1.4234,1.434,1.4344,1.4348,1.4438,0,0,0,0,0,0,1.4416,1.4415,1.4435,1.4399,1.4394,1.4421,1.4352,1.4342,1.4339,1.4331,1.4299,1.4291,1.4255,1.4278,1.4278,1.4312,1.4234,1.4337,1.4342,1.4347,1.4432,1.4445,1.4456,0,0,0,0,0,1.4417,1.4461,1.4436,1.4435,1.4417,1.4423,1.442,1.4377,1.4342,1.4362,1.4335,1.4292,1.431,1.4281,1.4281,1.4316,1.4334,1.4341,1.4346,1.4426,1.4442,1.4455,0,0,0,0,0,0,1.4502,1.4456,1.4427,1.4461,1.4447,1.4408,1.4431,1.4395,1.439,1.4382,1.4329,1.4323,1.4354,1.4337,1.4306,1.4366,1.4315,1.4322,1.4376,1.4391,1.4402,1.4406,1.4235,0,0,0,0,0,1.4525,1.4533,1.4492,1.4527,1.4521,1.4478,1.4478,1.4447,1.4429,1.4423,1.4397,1.4382,1.4384,1.4386,1.4386,1.4429,1.4422,1.4454,1.4466,1.4476,1.4482,1.4504,1.4518,1.4369,1.4369,1.4369,0,0,1.4572,1.4548,1.4556,1.4543,1.4528,1.4538,1.4473,1.4486,1.4493,1.4424,1.4445,1.4427,1.4406,1.444,1.4454,1.4427,1.4521,1.4483,1.4492,1.4492,1.4512,1.4526,1.4539,1.4374,1.4373,1.4372,0,0,1.4663,1.4646,1.4673,1.4659,1.4638,1.4609,1.4616,1.4583,1.4568,1.4588,1.4538,1.4546,1.455,1.4538,1.4533,1.4622,1.4583,1.4624,1.4686,1.4709,1.4721,1.4731,1.4763,1.4776,1.463,1.463,1.463,0,1.4725,1.4737,1.4691,1.4708,1.4704,1.4644,1.4671,1.4661,1.464,1.4639,1.461,1.4615,1.4597,1.4628,1.465,1.4648,1.4654,1.4627,1.4723,1.4733,1.4741,1.4772,1.4784,1.4635,1.4635,1.4634,1.4634,0,1.4814,1.4824,1.4849,1.4831,1.483,1.4852,1.481,1.4815,1.4784,1.4759,1.4781,1.4758,1.4753,1.4758,1.4727,1.4785,1.4769,1.4732,1.468,1.4762,1.4789,1.48,1.4643,1.4641,1.4639,1.4638,0,0,1.4956,1.4914,1.4924,1.4915,1.4888,1.4895,1.4915,1.491,1.4915,1.4904,1.492,1.4926,1.4892,1.4886,1.4855,1.4875,1.4948,1.4835,1.4834,1.4857,1.5011,1.5039,1.5053,1.4923,1.4925,1.4926,1.5013,0,1.5041,1.5072,1.5033,1.5073,1.5082,1.5026,1.5043,1.5029,1.5007,1.5012,1.4987,1.4993,1.4947,1.4943,1.4961,1.4936,1.4978,1.4929,1.4937,1.4938,1.4944,1.5067,1.5096,1.5179,1.5023,1.5025,1.5026,0,1.5144,1.5138,1.5179,1.515,1.5153,1.5169,1.5162,1.5167,1.5151,1.5133,1.5128,1.509,1.5109,1.5059,1.5084,1.5052,1.5053,1.5041,1.5044,1.5042,1.4987,1.5069,1.5204,1.5217,1.5043,1.5042,1.504,0,1.5244,1.5246,1.5271,1.5266,1.5233,1.5246,1.5233,1.5214,1.5214,1.5208,1.5208,1.5204,1.5202,1.5201,1.5164,1.5131,1.5194,1.5141,1.5181,1.5182,1.5196,1.5195,1.5333,1.5198,1.5198,1.5197,1.5197,0,1.5342,1.537,1.5316,1.5331,1.5361,1.5316,1.5346,1.5328,1.5312,1.5323,1.5275,1.5287,1.5237,1.5245,1.5216,1.5242,1.5241,1.5228,1.522,1.5232,1.5234,1.5232,1.5225,1.52,1.52,1.5199,1.5199,0,1.5458,1.5423,1.5447,1.5414,1.5407,1.543,1.5403,1.5416,1.5392,1.5407,1.5408,1.537,1.5376,1.5339,1.5338,1.5319,1.5359,1.5341,1.5365,1.5359,1.5401,1.5398,1.5542,1.5559,1.5413,1.5415,1.5416,0,1.5523,1.5543,1.5513,1.5517,1.5507,1.5515,1.5515,1.5472,1.5474,1.5457,1.5473,1.5475,1.5475,1.5487,1.5459,1.5459,1.5441,1.5492,1.544,1.5453,1.5442,1.5441,1.5443,1.5502,1.5504,1.5505,1.5506,0,1.5642,1.5624,1.5626,1.5623,1.5624,1.5619,1.5611,1.5618,1.5571,1.5576,1.5582,1.5582,1.5582,1.5585,1.5579,1.5566,1.5529,1.5523,1.5532,1.5544,1.5557,1.5551,1.5394,1.552,1.5518,1.5517,1.5517,1.5516,1.5735,1.575,1.5732,1.5736,1.5726,1.572,1.5731,1.5709,1.5713,1.5709,1.5684,1.5695,1.5679,1.5668,1.5659,1.5667,1.5643,1.5656,1.5659,1.5663,1.5671,1.5557,1.5666,1.5666,1.5665,1.5665,1.5664,0,1.5852,1.5838,1.5842,1.5832,1.5836,1.5801,1.5791,1.5796,1.5807,1.5795,1.5796,1.5803,1.5807,1.578,1.578,1.5792,1.5775,1.5794,1.5792,1.579,1.5692,1.5685,1.5807,1.5807,1.5807,1.5807,1.5807,1.5807,1.5913,1.5938,1.5918,1.5938,1.5923,1.5934,1.5931,1.5926,1.5916,1.5927,1.5929,1.5912,1.5895,1.5894,1.5896,1.5888,1.589,1.5915,1.5901,1.581,1.5797,1.5783,1.5776,1.5915,1.5916,1.5998,1.5998,1.5999]},{"header":{"parameterUnit":"m.s-1","parameterCategory":1,"la1":30.2991,"la2":30.254,"lo1":-89.0895,"lo2":-89.0444,"dy":0.0017,"dx":0.0017,"nx":28,"ny":28,"refTime":"2025-09-15T03:00:00:Z","depth":0,"parameterNumber":3,"parameterNumberName":"V-component_of_WINDS"},"data":[0,0,0,0,0,0,0,0,0,0,0,0,0,0,0,0,0,0,0,0,0,0,0,0,0,0,0,0,0,0,0,0,0,0,0,0,0,0,0,0,0,0,0,0,0,0,0,0,0,0,0,0,0,0,0,0,0,0,-2.6412,-2.6413,0,-2.6509,-2.651,-2.6511,-2.6497,-2.6495,-2.6494,-2.6492,-2.6587,-2.6591,-2.6595,0,0,0,0,0,0,0,0,0,0,0,0,0,-2.6213,-2.6217,-2.6412,-2.6414,-2.6415,-2.6509,-2.651,-2.6511,-2.6497,-2.6495,-2.6493,-2.6491,-2.6586,-2.6591,-2.6595,0,0,0,0,0,0,0,0,0,0,0,0,0,-2.6303,-2.6218,-2.6412,-2.6419,-2.6421,-2.6509,-2.651,-2.6512,-2.6498,-2.6495,-2.6493,-2.6491,-2.6584,-2.659,-2.6596,-2.6682,0,0,-2.6615,-2.6617,0,0,0,0,0,0,0,0,-2.6298,-2.6311,-2.6417,-2.6419,-2.6421,-2.6489,-2.6475,-2.6569,-2.6498,-2.6468,-2.6492,-2.6489,-2.6556,-2.6564,-2.6588,-2.6686,-2.669,-2.6615,-2.6619,-2.6621,-2.6623,0,0,0,0,0,0,0,-2.6292,-2.6306,-2.645,-2.6418,-2.6421,-2.6417,-2.6427,-2.6492,-2.6524,-2.6471,-2.647,-2.6482,-2.6557,-2.6582,-2.659,-2.6692,-2.6615,-2.662,-2.6624,-2.6626,-2.6867,-2.6869,0,0,0,0,0,0,-2.6284,-2.6301,-2.6447,-2.6453,-2.6352,-2.6422,-2.6433,-2.6469,-2.6524,-2.653,-2.6484,-2.6481,-2.6573,-2.6583,-2.6593,-2.6698,-2.6621,-2.6627,-2.663,-2.6864,-2.6867,-2.687,0,0,0,0,0,0,-2.628,-2.6298,-2.6443,-2.6377,-2.6396,-2.6428,-2.6468,-2.6472,-2.6498,-2.6534,-2.6539,-2.6504,-2.6571,-2.6584,-2.666,-2.6701,-2.663,-2.6635,-2.6861,-2.6865,-2.6869,-2.6907,0,0,0,0,0,0,-2.6274,-2.6296,-2.633,-2.6378,-2.6399,-2.651,-2.6471,-2.6476,-2.6508,-2.6505,-2.6554,-2.6559,-2.657,-2.6651,-2.6666,-2.6708,-2.664,-2.6857,-2.6863,-2.6868,-2.6903,-2.6912,-2.6921,0,0,0,0,0,-2.6267,-2.6335,-2.6331,-2.6349,-2.6442,-2.6513,-2.6524,-2.6537,-2.6512,-2.6545,-2.6569,-2.6558,-2.6694,-2.6659,-2.6676,-2.672,-2.6855,-2.6861,-2.6867,-2.6899,-2.691,-2.692,0,0,0,0,0,0,-2.6289,-2.6342,-2.6338,-2.6424,-2.6464,-2.651,-2.6553,-2.6549,-2.6595,-2.6591,-2.6602,-2.6614,-2.6691,-2.6713,-2.6673,-2.6806,-2.6771,-2.6781,-2.6789,-2.6801,-2.6809,-2.6802,-2.6645,0,0,0,0,0,-2.6304,-2.6358,-2.6401,-2.6473,-2.6493,-2.652,-2.6551,-2.6557,-2.6599,-2.6615,-2.6644,-2.6684,-2.6735,-2.6769,-2.6819,-2.6906,-2.6916,-2.6944,-2.6953,-2.696,-2.6969,-2.7017,-2.703,-2.6891,-2.6891,-2.6891,0,0,-2.6335,-2.6371,-2.6404,-2.6478,-2.651,-2.6565,-2.6534,-2.6593,-2.6634,-2.6624,-2.6698,-2.672,-2.6765,-2.6848,-2.6885,-2.6868,-2.701,-2.6968,-2.6974,-2.6978,-2.7025,-2.7038,-2.705,-2.6895,-2.6894,-2.6893,0,0,-2.642,-2.6453,-2.6517,-2.655,-2.6599,-2.6616,-2.6632,-2.6679,-2.6694,-2.6769,-2.6763,-2.6811,-2.69,-2.6932,-2.6961,-2.706,-2.7052,-2.7075,-2.7122,-2.7169,-2.718,-2.719,-2.7226,-2.7238,-2.7084,-2.7084,-2.7084,0,-2.6452,-2.6536,-2.6549,-2.661,-2.6643,-2.6638,-2.6703,-2.6733,-2.6796,-2.6818,-2.6799,-2.6911,-2.6941,-2.7032,-2.7056,-2.7079,-2.7097,-2.707,-2.7178,-2.7188,-2.7197,-2.7231,-2.7245,-2.7086,-2.7086,-2.7086,-2.7085,0,-2.6573,-2.6632,-2.6677,-2.6739,-2.6777,-2.6839,-2.6862,-2.6898,-2.6902,-2.6921,-2.6997,-2.7033,-2.7091,-2.7113,-2.7115,-2.7204,-2.7192,-2.7175,-2.714,-2.7213,-2.7245,-2.7258,-2.709,-2.7089,-2.7088,-2.7088,0,0,-2.6673,-2.6744,-2.676,-2.6789,-2.6844,-2.6889,-2.695,-2.7008,-2.704,-2.7083,-2.7135,-2.7211,-2.7197,-2.7229,-2.7235,-2.7277,-2.7354,-2.7255,-2.7256,-2.7273,-2.7454,-2.7466,-2.7481,-2.7349,-2.7352,-2.7354,-2.745,0,-2.6764,-2.6875,-2.689,-2.6988,-2.7042,-2.7038,-2.7092,-2.7131,-2.7151,-2.72,-2.7221,-2.7275,-2.7252,-2.7271,-2.7312,-2.7336,-2.739,-2.7329,-2.7397,-2.7399,-2.7386,-2.7498,-2.7511,-2.76,-2.7463,-2.7465,-2.7467,0,-2.6884,-2.6933,-2.7037,-2.7085,-2.7109,-2.7157,-2.7212,-2.7258,-2.7302,-2.7314,-2.7351,-2.7353,-2.7416,-2.7379,-2.7467,-2.7425,-2.7453,-2.7469,-2.7473,-2.748,-2.7437,-2.7508,-2.7629,-2.7642,-2.7486,-2.7485,-2.7483,0,-2.6947,-2.7039,-2.7113,-2.7138,-2.7196,-2.723,-2.7256,-2.7298,-2.7332,-2.7379,-2.7402,-2.7455,-2.7485,-2.7526,-2.7542,-2.7513,-2.7629,-2.7593,-2.764,-2.764,-2.7664,-2.7663,-2.7792,-2.7683,-2.7683,-2.7682,-2.7682,0,-2.7047,-2.711,-2.7143,-2.7188,-2.726,-2.7276,-2.7346,-2.737,-2.7408,-2.7457,-2.7457,-2.7504,-2.7522,-2.7572,-2.7585,-2.7656,-2.7669,-2.768,-2.7682,-2.768,-2.7679,-2.7699,-2.7693,-2.7686,-2.7685,-2.7684,-2.7684,0,-2.7129,-2.7153,-2.7234,-2.7283,-2.7297,-2.7348,-2.739,-2.7434,-2.7454,-2.7517,-2.7533,-2.7564,-2.7622,-2.7643,-2.7713,-2.7722,-2.7804,-2.7801,-2.779,-2.779,-2.7837,-2.7832,-2.7984,-2.8005,-2.7882,-2.7883,-2.7884,0,-2.7191,-2.724,-2.7295,-2.733,-2.7357,-2.7412,-2.7447,-2.7465,-2.7502,-2.7557,-2.7594,-2.7653,-2.77,-2.7794,-2.7822,-2.7876,-2.7875,-2.7924,-2.7883,-2.7879,-2.7876,-2.7873,-2.7878,-2.7932,-2.7933,-2.7934,-2.7935,0,-2.7298,-2.7308,-2.736,-2.7417,-2.7459,-2.7504,-2.7547,-2.7575,-2.7599,-2.764,-2.7701,-2.7738,-2.7811,-2.7869,-2.7925,-2.795,-2.7947,-2.7948,-2.7962,-2.796,-2.7951,-2.7957,-2.7811,-2.7944,-2.7943,-2.7943,-2.7942,-2.7942,-2.7373,-2.7417,-2.7463,-2.7521,-2.7556,-2.7597,-2.7641,-2.7668,-2.7719,-2.7781,-2.7788,-2.7853,-2.7897,-2.7972,-2.8,-2.8051,-2.8037,-2.8057,-2.8062,-2.8067,-2.8071,-2.7943,-2.8061,-2.8061,-2.806,-2.806,-2.806,0,-2.748,-2.751,-2.7564,-2.7625,-2.7671,-2.7665,-2.7713,-2.7752,-2.781,-2.7851,-2.7899,-2.7969,-2.8026,-2.8059,-2.8116,-2.8151,-2.815,-2.8165,-2.8162,-2.8169,-2.8079,-2.8062,-2.8164,-2.8164,-2.8164,-2.8164,-2.8164,-2.8164,-2.7542,-2.7617,-2.7632,-2.7724,-2.7754,-2.7819,-2.7847,-2.7885,-2.7918,-2.7997,-2.8045,-2.8067,-2.8106,-2.8165,-2.8217,-2.8225,-2.8246,-2.8262,-2.8269,-2.8185,-2.8175,-2.8164,-2.8148,-2.8267,-2.8267,-2.8354,-2.8355,-2.8356]}]]